Wetterdaten: Samstag, 16.06.2007
Datum Zeit Temp. a Sch. Temp. a Son. Temp. a Bod. Feuchte a. Luftdruck Regen Wind Richtung Richtung Sonnenschein Helligkeit Taupunkt Windchill
16.06.2007 00:00 15,0 C 14,6 C 15,5 C 93 % 1007 hPa 0,0 l/m 0,0 m/s (0 Bft) W-SW 250 0 min 0 lux 13,9 C 15,0 C
16.06.2007 00:05 14,9 C 14,6 C 15,3 C 94 % 1007 hPa 0,0 l/m 0,0 m/s (0 Bft) W-SW 250 0 min 0 lux 13,9 C 14,9 C
16.06.2007 00:10 14,8 C 14,6 C 15,3 C 94 % 1007 hPa 0,0 l/m 0,0 m/s (0 Bft) W-SW 250 0 min 0 lux 13,8 C 14,8 C
16.06.2007 00:15 14,7 C 14,5 C 15,4 C 94 % 1007 hPa 0,0 l/m 0,0 m/s (0 Bft) W-SW 250 0 min 0 lux 13,7 C 14,7 C
16.06.2007 00:20 14,8 C 14,5 C 15,2 C 94 % 1007 hPa 0,0 l/m 0,0 m/s (0 Bft) W-SW 250 0 min 0 lux 13,8 C 14,8 C
16.06.2007 00:25 14,8 C 14,4 C 15,1 C 94 % 1007 hPa 0,0 l/m 0,2 m/s (0 Bft) W-SW 245 0 min 0 lux 13,8 C 14,8 C
16.06.2007 00:30 14,7 C 14,4 C 15,1 C 94 % 1007 hPa 0,0 l/m 0,0 m/s (0 Bft) W-SW 245 0 min 0 lux 13,7 C 14,7 C
16.06.2007 00:35 14,8 C 14,4 C 15,1 C 94 % 1007 hPa 0,0 l/m 2,0 m/s (2 Bft) W45 265 0 min 0 lux 13,8 C 14,3 C
16.06.2007 00:40 14,8 C 14,4 C 15,2 C 94 % 1007 hPa 0,0 l/m 0,3 m/s (0 Bft) W 270 0 min 0 lux 13,8 C 14,8 C
16.06.2007 00:45 14,8 C 14,4 C 14,9 C 94 % 1007 hPa 0,0 l/m 1,9 m/s (2 Bft) W22.5 265 0 min 0 lux 13,8 C 14,6 C
16.06.2007 00:50 14,8 C 14,4 C 15,1 C 94 % 1007 hPa 0,0 l/m 0,1 m/s (0 Bft) W 270 0 min 0 lux 13,8 C 14,8 C
16.06.2007 00:55 14,7 C 14,4 C 15,1 C 94 % 1007 hPa 0,0 l/m 1,5 m/s (1 Bft) W 270 0 min 0 lux 13,7 C 14,7 C
16.06.2007 01:00 14,8 C 14,4 C 15,0 C 94 % 1007 hPa 0,0 l/m 1,2 m/s (1 Bft) W 280 0 min 0 lux 13,8 C 14,8 C
16.06.2007 01:05 14,8 C 14,5 C 15,0 C 94 % 1007 hPa 0,0 l/m 0,1 m/s (0 Bft) W 275 0 min 0 lux 13,8 C 14,8 C
16.06.2007 01:10 14,8 C 14,4 C 15,0 C 94 % 1007 hPa 0,0 l/m 1,3 m/s (1 Bft) W 270 0 min 0 lux 13,8 C 14,8 C
16.06.2007 01:15 14,8 C 14,4 C 15,2 C 94 % 1007 hPa 0,0 l/m 0,0 m/s (0 Bft) W 270 0 min 0 lux 13,8 C 14,8 C
16.06.2007 01:20 14,8 C 14,4 C 15,0 C 94 % 1007 hPa 0,0 l/m 0,0 m/s (0 Bft) W 270 0 min 0 lux 13,8 C 14,8 C
16.06.2007 01:25 14,8 C 14,4 C 15,0 C 94 % 1007 hPa 0,0 l/m 0,0 m/s (0 Bft) W 270 0 min 0 lux 13,8 C 14,8 C
16.06.2007 01:30 14,8 C 14,4 C 15,1 C 94 % 1007 hPa 0,0 l/m 0,0 m/s (0 Bft) W 270 0 min 0 lux 13,8 C 14,8 C
16.06.2007 01:35 14,7 C 14,4 C 14,7 C 94 % 1007 hPa 0,0 l/m 0,0 m/s (0 Bft) W 270 0 min 0 lux 13,7 C 14,7 C
16.06.2007 01:40 14,7 C 14,3 C 14,7 C 93 % 1007 hPa 0,0 l/m 0,0 m/s (0 Bft) W 270 0 min 0 lux 13,6 C 14,7 C
16.06.2007 01:45 14,6 C 14,3 C 14,6 C 93 % 1007 hPa 0,0 l/m 0,0 m/s (0 Bft) W 270 0 min 0 lux 13,5 C 14,6 C
16.06.2007 01:50 14,5 C 14,2 C 14,8 C 93 % 1007 hPa 0,0 l/m 0,0 m/s (0 Bft) W 270 0 min 0 lux 13,4 C 14,5 C
16.06.2007 01:55 14,5 C 14,1 C 14,5 C 93 % 1007 hPa 0,0 l/m 1,3 m/s (1 Bft) W-SW 240 0 min 0 lux 13,4 C 14,5 C
16.06.2007 02:00 14,4 C 14,1 C 14,6 C 93 % 1007 hPa 0,0 l/m 1,0 m/s (1 Bft) W-SW 250 0 min 0 lux 13,3 C 14,4 C
16.06.2007 02:05 14,3 C 14,0 C 14,5 C 93 % 1007 hPa 0,0 l/m 0,0 m/s (0 Bft) W-SW 255 0 min 0 lux 13,2 C 14,3 C
16.06.2007 02:10 14,2 C 14,0 C 14,3 C 93 % 1007 hPa 0,0 l/m 0,0 m/s (0 Bft) W-SW 255 0 min 0 lux 13,1 C 14,2 C
16.06.2007 02:15 14,2 C 13,9 C 14,3 C 93 % 1007 hPa 0,0 l/m 0,0 m/s (0 Bft) W-SW 255 0 min 0 lux 13,1 C 14,2 C
16.06.2007 02:20 14,0 C 13,8 C 14,5 C 93 % 1007 hPa 0,0 l/m 0,0 m/s (0 Bft) W 260 0 min 0 lux 12,9 C 14,0 C
16.06.2007 02:25 13,9 C 13,8 C 14,2 C 94 % 1007 hPa 0,0 l/m 1,0 m/s (1 Bft) S-SO67.5 160 0 min 0 lux 12,9 C 13,9 C
16.06.2007 02:30 13,9 C 13,6 C 13,9 C 94 % 1007 hPa 0,0 l/m 0,0 m/s (0 Bft) O-SO 105 0 min 0 lux 12,9 C 13,9 C
16.06.2007 02:35 13,9 C 13,6 C 14,1 C 94 % 1007 hPa 0,0 l/m 0,0 m/s (0 Bft) O-SO 105 0 min 0 lux 12,9 C 13,9 C
16.06.2007 02:40 13,8 C 13,6 C 14,3 C 94 % 1007 hPa 0,0 l/m 0,0 m/s (0 Bft) O-SO 105 0 min 0 lux 12,9 C 13,8 C
16.06.2007 02:45 13,9 C 13,5 C 14,0 C 94 % 1007 hPa 0,0 l/m 0,0 m/s (0 Bft) O-SO 105 0 min 0 lux 12,9 C 13,9 C
16.06.2007 02:50 14,0 C 13,4 C 14,3 C 93 % 1007 hPa 0,0 l/m 0,0 m/s (0 Bft) O-SO 105 0 min 0 lux 12,9 C 14,0 C
16.06.2007 02:55 13,8 C 13,4 C 14,3 C 94 % 1007 hPa 0,0 l/m 0,0 m/s (0 Bft) O-SO 105 0 min 0 lux 12,9 C 13,8 C
16.06.2007 03:00 13,9 C 13,4 C 14,1 C 94 % 1007 hPa 0,0 l/m 0,0 m/s (0 Bft) O-SO 105 0 min 0 lux 12,9 C 13,9 C
16.06.2007 03:05 13,9 C 13,4 C 14,1 C 94 % 1007 hPa 0,0 l/m 0,0 m/s (0 Bft) O-SO 105 0 min 0 lux 12,9 C 13,9 C
16.06.2007 03:10 13,9 C 13,3 C 14,2 C 94 % 1007 hPa 0,0 l/m 0,1 m/s (0 Bft) O-SO 105 0 min 0 lux 12,9 C 13,9 C
16.06.2007 03:15 14,0 C 13,3 C 14,1 C 94 % 1007 hPa 0,0 l/m 0,0 m/s (0 Bft) SW 225 0 min 0 lux 13,0 C 14,0 C
16.06.2007 03:20 14,0 C 13,3 C 14,1 C 94 % 1007 hPa 0,0 l/m 0,0 m/s (0 Bft) SW 225 0 min 0 lux 13,0 C 14,0 C
16.06.2007 03:25 14,0 C 13,3 C 14,2 C 94 % 1007 hPa 0,0 l/m 0,0 m/s (0 Bft) SW 225 0 min 0 lux 13,0 C 14,0 C
16.06.2007 03:30 13,9 C 13,3 C 14,1 C 94 % 1007 hPa 0,0 l/m 0,3 m/s (0 Bft) W-SW22.5 245 0 min 0 lux 12,9 C 13,9 C
16.06.2007 03:35 13,8 C 13,3 C 14,0 C 94 % 1007 hPa 0,0 l/m 0,0 m/s (0 Bft) SW 220 0 min 0 lux 12,9 C 13,8 C
16.06.2007 03:40 13,7 C 13,3 C 13,9 C 94 % 1007 hPa 0,0 l/m 0,0 m/s (0 Bft) SW 220 0 min 0 lux 12,8 C 13,7 C
16.06.2007 03:44 13,6 C 13,3 C 13,9 C 94 % 1007 hPa 0,0 l/m 0,0 m/s (0 Bft) SW 220 0 min 0 lux 12,7 C 13,6 C
16.06.2007 03:50 13,8 C 13,3 C 14,2 C 94 % 1007 hPa 0,0 l/m 0,0 m/s (0 Bft) SW 220 0 min 0 lux 12,9 C 13,8 C
16.06.2007 03:55 13,7 C 13,2 C 14,1 C 94 % 1007 hPa 0,0 l/m 0,0 m/s (0 Bft) SW 225 0 min 0 lux 12,8 C 13,7 C
16.06.2007 04:00 13,7 C 13,2 C 14,1 C 94 % 1007 hPa 0,0 l/m 0,0 m/s (0 Bft) W 280 0 min 0 lux 12,8 C 13,7 C
16.06.2007 04:05 13,7 C 13,2 C 14,1 C 94 % 1007 hPa 0,0 l/m 0,0 m/s (0 Bft) W 280 0 min 0 lux 12,8 C 13,7 C
16.06.2007 04:10 13,8 C 13,2 C 14,1 C 95 % 1007 hPa 0,0 l/m 0,0 m/s (0 Bft) W-NW 285 0 min 0 lux 13,0 C 13,8 C
16.06.2007 04:15 13,8 C 13,2 C 14,2 C 95 % 1007 hPa 0,0 l/m 0,0 m/s (0 Bft) W-NW 285 0 min 0 lux 13,0 C 13,8 C
16.06.2007 04:20 13,8 C 13,2 C 14,0 C 95 % 1007 hPa 0,0 l/m 0,0 m/s (0 Bft) W 280 0 min 0 lux 13,0 C 13,8 C
16.06.2007 04:25 13,8 C 13,2 C 14,0 C 95 % 1007 hPa 0,0 l/m 0,0 m/s (0 Bft) W 280 0 min 0 lux 13,0 C 13,8 C
16.06.2007 04:30 13,7 C 13,2 C 14,1 C 95 % 1007 hPa 0,0 l/m 0,0 m/s (0 Bft) W-NW 285 0 min 0 lux 12,9 C 13,7 C
16.06.2007 04:35 13,7 C 13,2 C 14,0 C 95 % 1007 hPa 0,0 l/m 0,0 m/s (0 Bft) W-NW 285 0 min 0 lux 12,9 C 13,7 C
16.06.2007 04:40 13,6 C 13,1 C 13,9 C 95 % 1007 hPa 0,0 l/m 0,2 m/s (0 Bft) SW 235 0 min 0 lux 12,8 C 13,6 C
16.06.2007 04:45 13,4 C 13,0 C 13,9 C 95 % 1007 hPa 0,0 l/m 0,0 m/s (0 Bft) SW 230 0 min 0 lux 12,6 C 13,4 C
16.06.2007 04:50 13,3 C 13,0 C 13,6 C 94 % 1007 hPa 0,0 l/m 0,0 m/s (0 Bft) SW 230 0 min 0 lux 12,4 C 13,3 C
16.06.2007 04:55 13,1 C 12,9 C 13,6 C 94 % 1007 hPa 0,0 l/m 0,0 m/s (0 Bft) SW 230 0 min 55 lux 12,2 C 13,1 C
16.06.2007 05:00 13,1 C 12,8 C 13,8 C 94 % 1007 hPa 0,0 l/m 0,0 m/s (0 Bft) W 260 0 min 92 lux 12,2 C 13,1 C
16.06.2007 05:05 13,0 C 12,7 C 13,4 C 94 % 1007 hPa 0,0 l/m 0,0 m/s (0 Bft) W 265 0 min 115 lux 12,1 C 13,0 C
16.06.2007 05:10 13,2 C 12,6 C 13,3 C 94 % 1007 hPa 0,0 l/m 1,0 m/s (1 Bft) W 270 0 min 189 lux 12,3 C 13,2 C
16.06.2007 05:15 13,0 C 12,6 C 13,3 C 94 % 1007 hPa 0,0 l/m 0,3 m/s (0 Bft) W-SW22.5 245 0 min 281 lux 12,1 C 13,0 C
16.06.2007 05:20 13,0 C 12,5 C 13,2 C 94 % 1007 hPa 0,0 l/m 0,3 m/s (0 Bft) W-SW 245 0 min 397 lux 12,1 C 13,0 C
16.06.2007 05:25 12,8 C 12,5 C 13,1 C 95 % 1007 hPa 0,0 l/m 0,2 m/s (0 Bft) W-SW 245 0 min 526 lux 12,0 C 12,8 C
16.06.2007 05:30 12,8 C 12,3 C 13,1 C 95 % 1007 hPa 0,0 l/m 0,0 m/s (0 Bft) W-SW 250 0 min 654 lux 12,0 C 12,8 C
16.06.2007 05:35 12,8 C 12,2 C 12,7 C 95 % 1007 hPa 0,0 l/m 0,0 m/s (0 Bft) W-SW 250 0 min 636 lux 12,0 C 12,8 C
16.06.2007 05:40 12,9 C 12,3 C 13,2 C 95 % 1007 hPa 0,0 l/m 0,0 m/s (0 Bft) S-SO 150 0 min 951 lux 12,1 C 12,9 C
16.06.2007 05:45 12,7 C 12,2 C 13,2 C 95 % 1007 hPa 0,0 l/m 0,0 m/s (0 Bft) S-SO 150 0 min 1,29 klux 11,9 C 12,7 C
16.06.2007 05:50 12,5 C 12,2 C 13,1 C 95 % 1007 hPa 0,0 l/m 0,0 m/s (0 Bft) S-SO 150 0 min 1,61 klux 11,7 C 12,5 C
16.06.2007 05:55 12,6 C 12,1 C 12,9 C 95 % 1007 hPa 0,0 l/m 0,0 m/s (0 Bft) S-SO 150 0 min 1,76 klux 11,8 C 12,6 C
16.06.2007 06:00 12,4 C 12,1 C 13,0 C 95 % 1007 hPa 0,0 l/m 0,0 m/s (0 Bft) S-SO 150 0 min 2,32 klux 11,6 C 12,4 C
16.06.2007 06:05 12,3 C 12,0 C 12,9 C 95 % 1007 hPa 0,0 l/m 0,0 m/s (0 Bft) S-SO 150 0 min 3,15 klux 11,5 C 12,3 C
16.06.2007 06:10 12,5 C 12,0 C 12,9 C 95 % 1007 hPa 0,0 l/m 0,0 m/s (0 Bft) S-SO 150 0 min 4,18 klux 11,7 C 12,5 C
16.06.2007 06:15 12,8 C 12,0 C 13,2 C 95 % 1007 hPa 0,0 l/m 0,0 m/s (0 Bft) S-SO 150 0 min 5,42 klux 12,0 C 12,8 C
16.06.2007 06:20 13,1 C 12,0 C 13,3 C 95 % 1007 hPa 0,0 l/m 0,0 m/s (0 Bft) S-SO 150 0 min 6,05 klux 12,3 C 13,1 C
16.06.2007 06:25 13,3 C 12,2 C 13,3 C 95 % 1007 hPa 0,0 l/m 0,0 m/s (0 Bft) S-SO 150 0 min 6,47 klux 12,5 C 13,3 C
16.06.2007 06:30 13,3 C 12,2 C 13,3 C 95 % 1007 hPa 0,0 l/m 0,3 m/s (0 Bft) S45 180 5 min 13,8 klux 12,5 C 13,3 C
16.06.2007 06:35 13,2 C 12,2 C 13,3 C 95 % 1007 hPa 0,0 l/m 2,6 m/s (2 Bft) W-SW22.5 250 5 min 18,8 klux 12,4 C 11,4 C
16.06.2007 06:40 13,2 C 12,5 C 13,3 C 95 % 1007 hPa 0,0 l/m 2,0 m/s (2 Bft) W-SW22.5 245 5 min 20,6 klux 12,4 C 12,7 C
16.06.2007 06:45 14,2 C 12,6 C 14,0 C 93 % 1007 hPa 0,0 l/m 3,3 m/s (2 Bft) W-SW22.5 250 5 min 21,7 klux 13,1 C 11,4 C
16.06.2007 06:50 14,9 C 12,7 C 14,6 C 87 % 1007 hPa 0,0 l/m 1,3 m/s (1 Bft) SW22.5 235 0 min 12,4 klux 12,8 C 14,9 C
16.06.2007 06:55 15,4 C 12,9 C 14,8 C 81 % 1007 hPa 0,0 l/m 2,5 m/s (2 Bft) W-SW45 250 5 min 24,5 klux 12,2 C 14,0 C
16.06.2007 07:00 15,7 C 13,1 C 14,8 C 74 % 1007 hPa 0,0 l/m 2,3 m/s (2 Bft) W-SW22.5 250 5 min 21,4 klux 11,1 C 14,7 C
16.06.2007 07:05 15,5 C 13,2 C 15,3 C 73 % 1007 hPa 0,0 l/m 2,9 m/s (2 Bft) W-SW22.5 245 5 min 25,3 klux 10,7 C 13,4 C
16.06.2007 07:10 16,3 C 13,3 C 17,2 C 66 % 1007 hPa 0,0 l/m 2,1 m/s (2 Bft) W-SW45 250 5 min 30,0 klux 9,9 C 15,8 C
16.06.2007 07:15 16,6 C 13,6 C 17,8 C 61 % 1007 hPa 0,0 l/m 3,2 m/s (2 Bft) W-SW22.5 250 5 min 32,7 klux 9,0 C 14,3 C
16.06.2007 07:20 17,2 C 13,9 C 19,6 C 58 % 1007 hPa 0,0 l/m 2,6 m/s (2 Bft) W45 260 5 min 33,7 klux 8,9 C 15,9 C
16.06.2007 07:25 17,0 C 14,0 C 19,1 C 59 % 1007 hPa 0,0 l/m 2,9 m/s (2 Bft) W22.5 260 0 min 17,4 klux 8,9 C 15,2 C
16.06.2007 07:30 16,2 C 14,2 C 16,9 C 64 % 1007 hPa 0,0 l/m 1,6 m/s (1 Bft) W-SW22.5 250 0 min 6,87 klux 9,4 C 16,2 C
16.06.2007 07:35 15,7 C 14,3 C 16,7 C 68 % 1007 hPa 0,0 l/m 1,7 m/s (2 Bft) SW22.5 235 0 min 6,56 klux 9,8 C 15,7 C
16.06.2007 07:40 15,0 C 14,3 C 16,3 C 74 % 1007 hPa 0,0 l/m 0,4 m/s (1 Bft) W-SW45 255 0 min 6,43 klux 10,4 C 15,0 C
16.06.2007 07:45 14,8 C 14,4 C 16,0 C 76 % 1008 hPa 0,0 l/m 3,6 m/s (3 Bft) W-SW45 240 0 min 6,86 klux 10,6 C 11,7 C
16.06.2007 07:50 14,9 C 14,4 C 16,1 C 78 % 1008 hPa 0,0 l/m 2,8 m/s (2 Bft) W-SW22.5 245 0 min 5,64 klux 11,1 C 13,0 C
16.06.2007 07:55 14,7 C 14,5 C 15,7 C 78 % 1008 hPa 0,0 l/m 5,1 m/s (3 Bft) W-SW22.5 250 0 min 8,73 klux 10,9 C 9,8 C
16.06.2007 08:00 14,7 C 14,6 C 15,5 C 78 % 1008 hPa 0,0 l/m 4,7 m/s (3 Bft) W-SW45 250 0 min 9,2 klux 10,9 C 10,3 C
16.06.2007 08:05 14,8 C 14,6 C 15,8 C 78 % 1008 hPa 0,0 l/m 3,5 m/s (3 Bft) W-SW22.5 255 0 min 13,6 klux 11,0 C 11,8 C
16.06.2007 08:10 15,2 C 14,6 C 16,0 C 77 % 1008 hPa 0,0 l/m 3,8 m/s (3 Bft) W22.5 260 0 min 18,2 klux 11,2 C 11,9 C
16.06.2007 08:15 16,3 C 14,6 C 18,6 C 70 % 1008 hPa 0,0 l/m 5,1 m/s (3 Bft) W45 260 0 min 32,2 klux 10,8 C 11,8 C
16.06.2007 08:20 16,0 C 14,7 C 16,6 C 65 % 1008 hPa 0,0 l/m 4,1 m/s (3 Bft) W-SW67.5 250 0 min 17,2 klux 9,4 C 12,5 C
16.06.2007 08:25 15,6 C 15,0 C 16,1 C 71 % 1008 hPa 0,0 l/m 3,5 m/s (3 Bft) W-SW45 245 0 min 14,8 klux 10,4 C 12,7 C
16.06.2007 08:30 15,5 C 15,0 C 16,1 C 73 % 1008 hPa 0,0 l/m 3,4 m/s (2 Bft) W-SW45 245 0 min 13,5 klux 10,7 C 12,8 C
16.06.2007 08:35 15,7 C 15,1 C 19,3 C 73 % 1008 hPa 0,0 l/m 3,2 m/s (2 Bft) SW45 225 5 min 38,3 klux 10,9 C 13,3 C
16.06.2007 08:40 17,1 C 15,1 C 21,1 C 62 % 1008 hPa 0,0 l/m 4,4 m/s (3 Bft) SW67.5 215 5 min 49,7 klux 9,8 C 13,5 C
16.06.2007 08:45 17,3 C 15,3 C 22,0 C 61 % 1008 hPa 0,0 l/m 3,6 m/s (3 Bft) SW67.5 230 5 min 52,3 klux 9,7 C 14,6 C
16.06.2007 08:50 17,3 C 15,3 C 21,1 C 63 % 1008 hPa 0,0 l/m 6,2 m/s (4 Bft) W-SW67.5 240 5 min 51,3 klux 10,2 C 12,2 C
16.06.2007 08:55 16,9 C 15,6 C 21,5 C 65 % 1008 hPa 0,0 l/m 4,4 m/s (3 Bft) W-SW67.5 240 5 min 53,0 klux 10,3 C 13,2 C
16.06.2007 09:00 17,2 C 16,0 C 20,7 C 62 % 1008 hPa 0,0 l/m 6,4 m/s (4 Bft) W-SW45 240 5 min 66,0 klux 9,9 C 11,9 C
16.06.2007 09:05 16,5 C 16,1 C 18,9 C 63 % 1008 hPa 0,0 l/m 5,3 m/s (3 Bft) S-SW67.5 210 0 min 18,7 klux 9,4 C 11,9 C
16.06.2007 09:10 16,5 C 16,1 C 18,1 C 65 % 1008 hPa 0,0 l/m 4,9 m/s (3 Bft) S-SW67.5 200 0 min 12,9 klux 9,9 C 12,3 C
16.06.2007 09:15 16,2 C 16,2 C 17,9 C 66 % 1008 hPa 0,0 l/m 3,6 m/s (3 Bft) SW67.5 220 0 min 9,1 klux 9,8 C 13,3 C
16.06.2007 09:20 16,0 C 16,2 C 17,9 C 67 % 1008 hPa 0,0 l/m 4,9 m/s (3 Bft) SW67.5 220 0 min 14,0 klux 9,9 C 11,6 C
16.06.2007 09:25 16,1 C 16,2 C 17,5 C 67 % 1008 hPa 0,0 l/m 4,3 m/s (3 Bft) SW45 220 0 min 11,9 klux 10,0 C 12,4 C
16.06.2007 09:30 16,6 C 16,3 C 18,0 C 67 % 1008 hPa 0,0 l/m 4,6 m/s (3 Bft) SW67.5 225 0 min 44,6 klux 10,4 C 12,7 C
16.06.2007 09:35 16,8 C 16,4 C 17,7 C 64 % 1008 hPa 0,0 l/m 4,3 m/s (3 Bft) SW67.5 220 0 min 25,6 klux 10,0 C 13,3 C
16.06.2007 09:40 16,6 C 16,5 C 17,6 C 61 % 1008 hPa 0,0 l/m 6,5 m/s (4 Bft) SW45 230 0 min 34,6 klux 9,0 C 11,1 C
16.06.2007 09:45 16,7 C 16,7 C 17,7 C 61 % 1008 hPa 0,0 l/m 7,9 m/s (4 Bft) W-SW67.5 240 0 min 27,8 klux 9,1 C 10,3 C
16.06.2007 09:50 16,5 C 16,8 C 18,4 C 60 % 1008 hPa 0,0 l/m 6,7 m/s (4 Bft) W45 260 0 min 48,9 klux 8,7 C 10,8 C
16.06.2007 09:55 17,3 C 17,1 C 19,5 C 57 % 1008 hPa 0,0 l/m 6,3 m/s (4 Bft) W-SW45 240 5 min 65,7 klux 8,7 C 12,2 C
16.06.2007 10:00 17,8 C 17,8 C 20,6 C 57 % 1008 hPa 0,0 l/m 8,9 m/s (5 Bft) W-SW45 240 5 min 63,6 klux 9,2 C 11,3 C
16.06.2007 10:05 17,9 C 18,5 C 21,2 C 58 % 1008 hPa 0,0 l/m 7,2 m/s (4 Bft) W-SW22.5 240 5 min 63,8 klux 9,5 C 12,4 C
16.06.2007 10:10 17,7 C 19,2 C 21,2 C 56 % 1008 hPa 0,0 l/m 8,5 m/s (5 Bft) W-SW45 250 5 min 65,1 klux 8,8 C 11,4 C
16.06.2007 10:15 17,7 C 19,5 C 22,1 C 56 % 1008 hPa 0,0 l/m 5,3 m/s (3 Bft) SW67.5 225 5 min 65,9 klux 8,8 C 13,5 C
16.06.2007 10:20 17,7 C 20,4 C 22,6 C 56 % 1008 hPa 0,0 l/m 6,3 m/s (4 Bft) W-SW67.5 240 5 min 67,2 klux 8,8 C 12,7 C
16.06.2007 10:25 18,5 C 21,0 C 22,3 C 53 % 1008 hPa 0,0 l/m 5,4 m/s (3 Bft) S-SW67.5 210 5 min 69,6 klux 8,7 C 14,4 C
16.06.2007 10:30 18,3 C 21,0 C 22,0 C 52 % 1008 hPa 0,0 l/m 5,7 m/s (4 Bft) SW67.5 235 5 min 69,6 klux 8,3 C 13,9 C
16.06.2007 10:35 18,3 C 21,0 C 21,7 C 52 % 1008 hPa 0,0 l/m 8,1 m/s (5 Bft) W-SW45 240 5 min 68,8 klux 8,3 C 12,4 C
16.06.2007 10:40 18,4 C 21,2 C 23,0 C 53 % 1008 hPa 0,0 l/m 6,0 m/s (4 Bft) W-SW45 245 5 min 68,9 klux 8,6 C 13,8 C
16.06.2007 10:45 19,0 C 21,3 C 23,0 C 53 % 1008 hPa 0,0 l/m 4,8 m/s (3 Bft) SW67.5 220 5 min 70,2 klux 9,2 C 15,5 C
16.06.2007 10:50 18,8 C 21,9 C 23,6 C 51 % 1008 hPa 0,0 l/m 6,1 m/s (4 Bft) W-SW67.5 245 5 min 75,1 klux 8,4 C 14,3 C
16.06.2007 10:55 18,7 C 22,3 C 23,2 C 50 % 1008 hPa 0,0 l/m 7,7 m/s (4 Bft) W-SW45 255 5 min 77,7 klux 8,1 C 13,2 C
16.06.2007 11:00 18,9 C 22,2 C 23,4 C 48 % 1008 hPa 0,0 l/m 6,3 m/s (4 Bft) W-SW45 240 5 min 90,2 klux 7,6 C 14,3 C
16.06.2007 11:05 18,9 C 22,1 C 22,0 C 48 % 1008 hPa 0,0 l/m 7,9 m/s (4 Bft) W-SW45 250 0 min 25,7 klux 7,6 C 13,4 C
16.06.2007 11:10 18,8 C 21,6 C 22,9 C 50 % 1008 hPa 0,0 l/m 8,1 m/s (5 Bft) W-SW45 250 5 min 78,1 klux 8,2 C 13,2 C
16.06.2007 11:15 18,6 C 22,1 C 23,8 C 48 % 1008 hPa 0,0 l/m 4,9 m/s (3 Bft) W22.5 265 5 min 79,6 klux 7,4 C 14,9 C
16.06.2007 11:20 18,7 C 22,2 C 23,8 C 46 % 1008 hPa 0,0 l/m 9,2 m/s (5 Bft) W-SW45 255 5 min 87,3 klux 6,8 C 12,5 C
16.06.2007 11:25 18,5 C 21,9 C 22,7 C 49 % 1008 hPa 0,0 l/m 8,1 m/s (5 Bft) W-SW45 250 5 min 89,6 klux 7,6 C 12,7 C
16.06.2007 11:30 19,4 C 22,5 C 23,8 C 49 % 1008 hPa 0,0 l/m 9,1 m/s (5 Bft) W-SW45 245 5 min 84,8 klux 8,4 C 13,6 C
16.06.2007 11:35 19,1 C 22,9 C 24,1 C 47 % 1008 hPa 0,0 l/m 8,6 m/s (5 Bft) W45 265 5 min 78,8 klux 7,5 C 13,3 C
16.06.2007 11:40 19,2 C 23,0 C 24,1 C 48 % 1008 hPa 0,0 l/m 8,9 m/s (5 Bft) W45 260 5 min 87,2 klux 7,9 C 13,3 C
16.06.2007 11:45 19,3 C 23,2 C 24,3 C 47 % 1008 hPa 0,0 l/m 8,1 m/s (5 Bft) W-SW67.5 245 5 min 77,0 klux 7,7 C 13,8 C
16.06.2007 11:50 19,5 C 23,5 C 23,9 C 46 % 1008 hPa 0,0 l/m 6,8 m/s (4 Bft) SW67.5 230 5 min 90,6 klux 7,6 C 14,8 C
16.06.2007 11:55 19,7 C 23,4 C 23,9 C 46 % 1008 hPa 0,0 l/m 7,6 m/s (4 Bft) SW45 215 5 min 85,5 klux 7,8 C 14,6 C
16.06.2007 12:00 18,5 C 22,7 C 23,0 C 45 % 1008 hPa 0,0 l/m 7,3 m/s (4 Bft) W-SW45 255 0 min 25,9 klux 6,3 C 13,1 C
16.06.2007 12:05 19,1 C 22,5 C 23,9 C 44 % 1008 hPa 0,0 l/m 8,6 m/s (5 Bft) W-SW45 245 5 min 90,0 klux 6,6 C 13,3 C
16.06.2007 12:10 19,5 C 22,7 C 23,5 C 45 % 1008 hPa 0,0 l/m 8,2 m/s (5 Bft) W-SW45 250 5 min 99,0 klux 7,2 C 14,1 C
16.06.2007 12:15 19,1 C 22,6 C 23,4 C 45 % 1008 hPa 0,0 l/m 7,5 m/s (4 Bft) W45 270 0 min 47,2 klux 6,9 C 13,8 C
16.06.2007 12:20 19,1 C 22,5 C 23,3 C 44 % 1008 hPa 0,0 l/m 8,5 m/s (5 Bft) W-SW45 250 0 min 41,0 klux 6,6 C 13,4 C
16.06.2007 12:25 19,7 C 22,9 C 24,4 C 43 % 1008 hPa 0,0 l/m 9,7 m/s (5 Bft) W45 265 5 min 101 klux 6,8 C 13,7 C
16.06.2007 12:30 20,4 C 23,2 C 24,9 C 42 % 1008 hPa 0,0 l/m 9,7 m/s (5 Bft) W45 265 5 min 86,4 klux 7,1 C 14,8 C
16.06.2007 12:35 20,0 C 23,4 C 24,8 C 40 % 1008 hPa 0,0 l/m 7,8 m/s (4 Bft) W-SW45 245 5 min 83,6 klux 6,0 C 15,0 C
16.06.2007 12:40 20,8 C 24,0 C 25,6 C 42 % 1008 hPa 0,0 l/m 6,9 m/s (4 Bft) SW67.5 220 5 min 93,5 klux 7,4 C 16,5 C
16.06.2007 12:45 20,3 C 24,1 C 25,9 C 40 % 1008 hPa 0,0 l/m 8,9 m/s (5 Bft) W-SW67.5 245 5 min 89,4 klux 6,3 C 14,9 C
16.06.2007 12:50 20,5 C 24,3 C 26,0 C 41 % 1008 hPa 0,0 l/m 5,6 m/s (4 Bft) W-SW67.5 240 5 min 94,3 klux 6,8 C 16,8 C
16.06.2007 12:55 20,8 C 24,8 C 26,4 C 42 % 1008 hPa 0,0 l/m 5,6 m/s (4 Bft) W-SW67.5 240 5 min 94,3 klux 7,4 C 17,2 C
16.06.2007 13:00 20,7 C 25,0 C 26,5 C 41 % 1008 hPa 0,0 l/m 5,6 m/s (4 Bft) SW22.5 230 5 min 93,4 klux 7,0 C 17,1 C
16.06.2007 13:05 21,2 C 25,0 C 26,7 C 39 % 1008 hPa 0,0 l/m 7,9 m/s (4 Bft) W-SW67.5 240 5 min 95,3 klux 6,7 C 16,6 C
16.06.2007 13:10 20,4 C 25,2 C 26,4 C 38 % 1008 hPa 0,0 l/m 6,3 m/s (4 Bft) W-SW45 255 5 min 96,8 klux 5,6 C 16,3 C
16.06.2007 13:15 19,7 C 24,0 C 24,8 C 40 % 1008 hPa 0,0 l/m 6,1 m/s (4 Bft) W-SW67.5 240 0 min 18,5 klux 5,7 C 15,5 C
16.06.2007 13:20 19,6 C 23,4 C 24,9 C 41 % 1008 hPa 0,0 l/m 8,6 m/s (5 Bft) SW67.5 225 0 min 43,7 klux 6,0 C 14,1 C
16.06.2007 13:25 19,8 C 23,6 C 25,2 C 41 % 1008 hPa 0,0 l/m 5,9 m/s (4 Bft) W-SW45 250 5 min 72,5 klux 6,2 C 15,7 C
16.06.2007 13:30 20,0 C 24,2 C 25,6 C 40 % 1008 hPa 0,0 l/m 7,3 m/s (4 Bft) W-SW45 250 5 min 77,0 klux 6,0 C 15,2 C
16.06.2007 13:35 20,3 C 24,3 C 26,1 C 37 % 1008 hPa 0,0 l/m 7,0 m/s (4 Bft) SW67.5 230 5 min 84,4 klux 5,1 C 15,7 C
16.06.2007 13:40 20,7 C 25,1 C 26,4 C 38 % 1008 hPa 0,0 l/m 4,3 m/s (3 Bft) SW67.5 230 5 min 88,3 klux 5,9 C 18,0 C
16.06.2007 13:45 20,7 C 25,9 C 27,3 C 38 % 1007 hPa 0,0 l/m 7,4 m/s (4 Bft) SW45 235 5 min 93,3 klux 5,9 C 16,1 C
16.06.2007 13:50 21,3 C 25,7 C 26,9 C 34 % 1007 hPa 0,0 l/m 5,6 m/s (4 Bft) S-SW67.5 205 0 min 55,3 klux 4,8 C 17,9 C
16.06.2007 13:55 21,2 C 25,6 C 26,2 C 35 % 1007 hPa 0,0 l/m 6,3 m/s (4 Bft) S-SW67.5 210 0 min 29,1 klux 5,1 C 17,4 C
16.06.2007 14:00 21,3 C 25,8 C 26,5 C 35 % 1007 hPa 0,0 l/m 8,1 m/s (5 Bft) S-SW67.5 205 5 min 97,8 klux 5,2 C 16,6 C
16.06.2007 14:05 21,3 C 25,9 C 26,8 C 35 % 1007 hPa 0,0 l/m 7,8 m/s (4 Bft) W-SW22.5 245 5 min 99 klux 5,2 C 16,8 C
16.06.2007 14:10 20,8 C 25,8 C 27,1 C 35 % 1007 hPa 0,0 l/m 7,5 m/s (4 Bft) W-SW45 240 5 min 92,1 klux 4,8 C 16,2 C
16.06.2007 14:15 21,6 C 26,3 C 27,4 C 34 % 1007 hPa 0,0 l/m 6,3 m/s (4 Bft) W-SW45 250 5 min 92,9 klux 5,1 C 17,9 C
16.06.2007 14:20 20,9 C 26,4 C 26,7 C 34 % 1007 hPa 0,0 l/m 7,4 m/s (4 Bft) W-SW45 250 5 min 90,1 klux 4,4 C 16,4 C
16.06.2007 14:24 21,4 C 26,0 C 26,6 C 32 % 1007 hPa 0,0 l/m 9,9 m/s (5 Bft) SW45 235 4 min 85,8 klux 4,0 C 16,2 C
16.06.2007 14:29 21,3 C 26,2 C 27,5 C 33 % 1007 hPa 0,0 l/m 8,7 m/s (5 Bft) W-SW45 245 5 min 85,0 klux 4,4 C 16,4 C
16.06.2007 14:34 21,2 C 26,2 C 27,0 C 33 % 1007 hPa 0,0 l/m 6,6 m/s (4 Bft) W-SW45 245 0 min 25,4 klux 4,3 C 17,2 C
16.06.2007 14:39 21,1 C 25,9 C 27,2 C 35 % 1007 hPa 0,0 l/m 7,2 m/s (4 Bft) SW45 230 5 min 97,5 klux 5,0 C 16,7 C
16.06.2007 14:45 20,9 C 25,9 C 26,1 C 32 % 1007 hPa 0,0 l/m 8,2 m/s (5 Bft) W45 260 6 min 101 klux 3,6 C 16,0 C
16.06.2007 14:50 21,7 C 26,1 C 26,5 C 33 % 1007 hPa 0,0 l/m 10,3 m/s (5 Bft) W-SW45 250 5 min 89,8 klux 4,7 C 16,5 C
16.06.2007 14:55 21,2 C 25,9 C 26,3 C 32 % 1007 hPa 0,0 l/m 8,7 m/s (5 Bft) SW45 235 5 min 93,4 klux 3,8 C 16,3 C
16.06.2007 15:00 21,2 C 25,4 C 25,4 C 32 % 1007 hPa 0,0 l/m 8,8 m/s (5 Bft) W-SW45 240 0 min 32,7 klux 3,8 C 16,2 C
16.06.2007 15:05 20,9 C 24,4 C 25,5 C 35 % 1007 hPa 0,0 l/m 7,1 m/s (4 Bft) W-SW45 240 0 min 35,1 klux 4,9 C 16,5 C
16.06.2007 15:10 20,6 C 23,8 C 24,9 C 34 % 1007 hPa 0,0 l/m 6,8 m/s (4 Bft) W-SW45 245 0 min 26,3 klux 4,2 C 16,3 C
16.06.2007 15:15 20,4 C 23,3 C 23,9 C 35 % 1007 hPa 0,0 l/m 8,8 m/s (5 Bft) SW67.5 230 0 min 26,9 klux 4,4 C 15,1 C
16.06.2007 15:20 20,9 C 23,2 C 24,8 C 36 % 1007 hPa 0,0 l/m 9,6 m/s (5 Bft) W45 260 0 min 40,4 klux 5,3 C 15,5 C
16.06.2007 15:25 21,5 C 23,5 C 24,7 C 35 % 1007 hPa 0,0 l/m 5,8 m/s (4 Bft) W-SW45 240 5 min 95,9 klux 5,4 C 18,0 C
16.06.2007 15:30 20,9 C 23,3 C 23,7 C 35 % 1007 hPa 0,0 l/m 8,7 m/s (5 Bft) W45 260 5 min 94,7 klux 4,9 C 15,9 C
16.06.2007 15:35 20,1 C 23,7 C 23,5 C 32 % 1007 hPa 0,0 l/m 10,5 m/s (5 Bft) W-SW45 250 0 min 51,8 klux 2,9 C 14,0 C
16.06.2007 15:40 19,7 C 23,3 C 23,0 C 33 % 1008 hPa 0,0 l/m 11,3 m/s (6 Bft) W-SW67.5 240 0 min 29,6 klux 3,0 C 13,2 C
16.06.2007 15:45 19,4 C 22,3 C 22,9 C 35 % 1008 hPa 0,0 l/m 8,7 m/s (5 Bft) W-SW67.5 240 0 min 29,4 klux 3,5 C 13,7 C
16.06.2007 15:50 19,6 C 22,0 C 22,9 C 38 % 1008 hPa 0,0 l/m 8,3 m/s (5 Bft) W-SW45 240 0 min 29,3 klux 4,9 C 14,2 C
16.06.2007 15:55 19,9 C 21,8 C 23,1 C 38 % 1008 hPa 0,0 l/m 6,8 m/s (4 Bft) W45 260 0 min 36,1 klux 5,2 C 15,3 C
16.06.2007 16:00 19,7 C 22,1 C 23,3 C 36 % 1008 hPa 0,0 l/m 7,8 m/s (4 Bft) W-SW45 255 0 min 40,2 klux 4,2 C 14,6 C
16.06.2007 16:05 19,9 C 22,2 C 22,9 C 37 % 1007 hPa 0,0 l/m 5,4 m/s (3 Bft) W-SW45 255 0 min 32,5 klux 4,8 C 16,2 C
16.06.2007 16:10 21,5 C 22,2 C 24,1 C 36 % 1007 hPa 0,0 l/m 4,9 m/s (3 Bft) W45 260 5 min 92,7 klux 5,8 C 18,6 C
16.06.2007 16:15 21,3 C 24,8 C 23,5 C 34 % 1007 hPa 0,0 l/m 6,9 m/s (4 Bft) W45 260 5 min 83,8 klux 4,8 C 17,2 C
16.06.2007 16:20 21,4 C 25,8 C 23,7 C 35 % 1007 hPa 0,0 l/m 7,0 m/s (4 Bft) W-SW45 255 5 min 88,5 klux 5,3 C 17,3 C
16.06.2007 16:25 21,0 C 26,1 C 23,9 C 34 % 1007 hPa 0,0 l/m 7,8 m/s (4 Bft) W-SW45 250 5 min 73,3 klux 4,5 C 16,4 C
16.06.2007 16:30 20,9 C 25,4 C 23,5 C 34 % 1007 hPa 0,0 l/m 4,7 m/s (3 Bft) SW67.5 215 0 min 22,6 klux 4,4 C 18,0 C
16.06.2007 16:35 20,1 C 24,4 C 22,7 C 36 % 1007 hPa 0,0 l/m 8,3 m/s (5 Bft) W-SW67.5 250 0 min 13,4 klux 4,6 C 14,9 C
16.06.2007 16:40 19,5 C 23,1 C 22,1 C 38 % 1007 hPa 0,0 l/m 7,6 m/s (4 Bft) W-SW45 240 0 min 11,8 klux 4,8 C 14,4 C
16.06.2007 16:45 19,3 C 22,5 C 21,4 C 40 % 1007 hPa 0,0 l/m 10,3 m/s (5 Bft) W-SW45 250 0 min 12,6 klux 5,4 C 12,9 C
16.06.2007 16:50 18,6 C 21,8 C 20,7 C 44 % 1007 hPa 0,0 l/m 11,1 m/s (6 Bft) W-SW45 250 0 min 20,4 klux 6,1 C 11,6 C
16.06.2007 16:55 17,6 C 20,3 C 19,5 C 51 % 1008 hPa 0,0 l/m 9,2 m/s (5 Bft) SW67.5 235 0 min 28,8 klux 7,3 C 10,9 C
16.06.2007 17:00 18,3 C 20,0 C 20,5 C 51 % 1008 hPa 0,0 l/m 8,5 m/s (5 Bft) W-SW67.5 245 5 min 87,3 klux 8,0 C 12,2 C
16.06.2007 17:05 18,7 C 20,4 C 22,1 C 48 % 1008 hPa 0,0 l/m 6,2 m/s (4 Bft) SW45 235 5 min 71,1 klux 7,5 C 14,1 C
16.06.2007 17:10 19,1 C 21,3 C 22,1 C 46 % 1008 hPa 0,0 l/m 6,6 m/s (4 Bft) SW45 235 0 min 32,0 klux 7,2 C 14,4 C
16.06.2007 17:15 18,6 C 21,1 C 21,5 C 48 % 1008 hPa 0,0 l/m 5,0 m/s (3 Bft) SW45 235 0 min 27,6 klux 7,4 C 14,8 C
16.06.2007 17:20 18,7 C 20,9 C 21,0 C 48 % 1008 hPa 0,0 l/m 5,0 m/s (3 Bft) SW45 215 0 min 32,0 klux 7,5 C 15,0 C
16.06.2007 17:25 18,9 C 20,8 C 21,8 C 48 % 1008 hPa 0,0 l/m 5,1 m/s (3 Bft) S-SW45 200 0 min 35,2 klux 7,6 C 15,1 C
16.06.2007 17:30 20,0 C 21,9 C 21,7 C 46 % 1008 hPa 0,0 l/m 3,8 m/s (3 Bft) S67.5 175 5 min 62,3 klux 8,0 C 17,5 C
16.06.2007 17:35 19,8 C 22,2 C 22,1 C 45 % 1008 hPa 0,0 l/m 5,1 m/s (3 Bft) S-SW67.5 200 5 min 67,7 klux 7,5 C 16,3 C
16.06.2007 17:40 19,3 C 21,8 C 21,4 C 47 % 1008 hPa 0,0 l/m 4,1 m/s (3 Bft) SW45 225 0 min 23,2 klux 7,7 C 16,4 C
16.06.2007 17:45 19,1 C 21,6 C 21,6 C 49 % 1008 hPa 0,0 l/m 2,8 m/s (2 Bft) SW67.5 225 0 min 26,1 klux 8,1 C 17,6 C
16.06.2007 17:50 19,3 C 21,6 C 22,0 C 48 % 1008 hPa 0,0 l/m 3,9 m/s (3 Bft) W-SW45 240 0 min 25,5 klux 8,0 C 16,6 C
16.06.2007 17:55 19,4 C 21,6 C 21,6 C 49 % 1008 hPa 0,0 l/m 5,7 m/s (4 Bft) SW67.5 235 0 min 23,6 klux 8,4 C 15,4 C
16.06.2007 18:00 19,2 C 21,3 C 21,0 C 47 % 1008 hPa 0,0 l/m 5,1 m/s (3 Bft) W45 260 0 min 19,6 klux 7,6 C 15,5 C
16.06.2007 18:05 19,0 C 21,1 C 20,7 C 47 % 1007 hPa 0,0 l/m 5,3 m/s (3 Bft) W-SW45 240 0 min 20,1 klux 7,4 C 15,1 C
16.06.2007 18:10 19,1 C 20,8 C 20,9 C 48 % 1007 hPa 0,0 l/m 8,1 m/s (5 Bft) W-SW67.5 240 0 min 22,5 klux 7,8 C 13,5 C
16.06.2007 18:15 19,3 C 21,1 C 20,9 C 47 % 1007 hPa 0,0 l/m 8,0 m/s (4 Bft) SW67.5 235 5 min 52,2 klux 7,7 C 13,9 C
16.06.2007 18:20 19,2 C 20,8 C 21,1 C 47 % 1007 hPa 0,0 l/m 6,5 m/s (4 Bft) W-SW45 240 0 min 20,8 klux 7,6 C 14,5 C
16.06.2007 18:25 19,2 C 20,9 C 21,2 C 48 % 1007 hPa 0,0 l/m 5,0 m/s (3 Bft) W-SW67.5 250 5 min 53,7 klux 7,9 C 15,6 C
16.06.2007 18:30 20,1 C 21,5 C 21,5 C 46 % 1007 hPa 0,0 l/m 5,2 m/s (3 Bft) W-SW45 245 0 min 26,4 klux 8,1 C 16,6 C
16.06.2007 18:35 20,4 C 22,5 C 21,8 C 47 % 1007 hPa 0,0 l/m 3,8 m/s (3 Bft) W-SW45 245 0 min 32,6 klux 8,7 C 18,1 C
16.06.2007 18:40 20,4 C 22,5 C 21,6 C 47 % 1007 hPa 0,0 l/m 4,3 m/s (3 Bft) W-SW45 250 0 min 23,3 klux 8,7 C 17,6 C
16.06.2007 18:45 19,1 C 22,1 C 20,9 C 48 % 1007 hPa 0,0 l/m 4,5 m/s (3 Bft) W-SW45 255 0 min 9,9 klux 7,8 C 15,9 C
16.06.2007 18:50 18,9 C 21,5 C 20,9 C 51 % 1007 hPa 0,0 l/m 5,1 m/s (3 Bft) SW45 230 0 min 17,7 klux 8,5 C 15,1 C
16.06.2007 18:55 18,9 C 21,2 C 20,8 C 51 % 1007 hPa 0,0 l/m 5,0 m/s (3 Bft) W-SW45 245 0 min 14,9 klux 8,5 C 15,2 C
16.06.2007 19:00 19,1 C 20,9 C 20,7 C 51 % 1007 hPa 0,0 l/m 4,8 m/s (3 Bft) SW45 235 0 min 16,5 klux 8,7 C 15,7 C
16.06.2007 19:05 18,9 C 20,8 C 20,6 C 53 % 1008 hPa 0,0 l/m 6,5 m/s (4 Bft) W22.5 260 0 min 15,0 klux 9,1 C 14,1 C
16.06.2007 19:10 18,6 C 20,5 C 20,0 C 47 % 1008 hPa 0,0 l/m 6,5 m/s (4 Bft) W-SW22.5 250 5 min 31,8 klux 7,1 C 13,8 C
16.06.2007 19:15 18,6 C 20,4 C 20,2 C 47 % 1008 hPa 0,0 l/m 7,7 m/s (4 Bft) W22.5 260 0 min 15,4 klux 7,1 C 13,1 C
16.06.2007 19:20 18,5 C 20,4 C 19,7 C 46 % 1008 hPa 0,0 l/m 8,7 m/s (5 Bft) W45 260 0 min 15,5 klux 6,7 C 12,5 C
16.06.2007 19:25 19,6 C 20,9 C 19,6 C 45 % 1008 hPa 0,0 l/m 8,6 m/s (5 Bft) W45 260 5 min 36,2 klux 7,3 C 14,1 C
16.06.2007 19:30 19,8 C 21,2 C 19,6 C 44 % 1007 hPa 0,0 l/m 6,9 m/s (4 Bft) W-SW45 250 0 min 21,9 klux 7,2 C 15,1 C
16.06.2007 19:35 19,5 C 21,3 C 19,4 C 46 % 1007 hPa 0,0 l/m 5,5 m/s (3 Bft) W67.5 260 5 min 24,3 klux 7,6 C 15,6 C
16.06.2007 19:40 18,3 C 20,6 C 19,2 C 48 % 1007 hPa 0,0 l/m 7,2 m/s (4 Bft) W-SW45 245 0 min 7,96 klux 7,1 C 12,9 C
16.06.2007 19:45 18,4 C 20,3 C 19,1 C 49 % 1007 hPa 0,0 l/m 4,8 m/s (3 Bft) W-SW67.5 240 0 min 13,3 klux 7,5 C 14,8 C
16.06.2007 19:50 18,7 C 20,3 C 19,0 C 49 % 1007 hPa 0,0 l/m 5,8 m/s (4 Bft) W-SW45 250 0 min 19,0 klux 7,8 C 14,4 C
16.06.2007 19:55 18,5 C 20,3 C 19,0 C 48 % 1007 hPa 0,0 l/m 3,2 m/s (2 Bft) W45 260 0 min 13,4 klux 7,3 C 16,5 C
16.06.2007 20:00 18,6 C 20,3 C 19,1 C 48 % 1007 hPa 0,0 l/m 3,6 m/s (3 Bft) W-SW45 255 0 min 15,1 klux 7,4 C 16,2 C
16.06.2007 20:05 18,3 C 20,3 C 18,8 C 47 % 1007 hPa 0,0 l/m 4,0 m/s (3 Bft) W22.5 265 0 min 14,1 klux 6,8 C 15,4 C
16.06.2007 20:10 17,9 C 19,9 C 18,9 C 50 % 1007 hPa 0,0 l/m 3,4 m/s (3 Bft) W45 260 0 min 9,1 klux 7,3 C 15,5 C
16.06.2007 20:15 17,9 C 19,7 C 18,8 C 50 % 1007 hPa 0,0 l/m 3,1 m/s (2 Bft) W-SW45 255 0 min 11,5 klux 7,3 C 15,9 C
16.06.2007 20:20 17,8 C 19,6 C 18,6 C 50 % 1007 hPa 0,0 l/m 4,1 m/s (3 Bft) W-SW22.5 255 0 min 12,0 klux 7,2 C 14,7 C
16.06.2007 20:25 17,7 C 19,5 C 18,6 C 51 % 1007 hPa 0,0 l/m 3,3 m/s (2 Bft) W45 260 0 min 10,0 klux 7,4 C 15,4 C
16.06.2007 20:30 17,6 C 19,4 C 18,6 C 51 % 1007 hPa 0,0 l/m 2,3 m/s (2 Bft) W-SW22.5 255 0 min 8,97 klux 7,3 C 16,7 C
16.06.2007 20:35 17,7 C 19,2 C 18,9 C 52 % 1008 hPa 0,0 l/m 2,1 m/s (2 Bft) W-SW22.5 255 0 min 8,88 klux 7,7 C 17,2 C
16.06.2007 20:40 17,6 C 19,2 C 18,6 C 52 % 1008 hPa 0,0 l/m 2,3 m/s (2 Bft) W-SW22.5 240 0 min 9,00 klux 7,6 C 16,7 C
16.06.2007 20:45 17,5 C 18,9 C 18,6 C 53 % 1008 hPa 0,0 l/m 0,2 m/s (0 Bft) SW 230 0 min 5,44 klux 7,8 C 17,5 C
16.06.2007 20:50 17,3 C 18,8 C 18,5 C 55 % 1008 hPa 0,0 l/m 0,2 m/s (0 Bft) SW 225 0 min 5,21 klux 8,2 C 17,3 C
16.06.2007 20:55 17,3 C 18,7 C 18,3 C 56 % 1008 hPa 0,0 l/m 0,0 m/s (0 Bft) S-SW 205 0 min 5,92 klux 8,4 C 17,3 C
16.06.2007 21:00 17,1 C 18,5 C 18,4 C 56 % 1008 hPa 0,0 l/m 0,0 m/s (0 Bft) S-SW 205 0 min 4,82 klux 8,3 C 17,1 C
16.06.2007 21:05 16,9 C 18,5 C 18,4 C 58 % 1008 hPa 0,0 l/m 0,0 m/s (0 Bft) S-SW 205 0 min 3,32 klux 8,6 C 16,9 C
16.06.2007 21:10 16,8 C 18,2 C 18,1 C 59 % 1008 hPa 0,0 l/m 0,0 m/s (0 Bft) S-SW 205 0 min 2,90 klux 8,7 C 16,8 C
16.06.2007 21:15 16,8 C 18,2 C 18,3 C 62 % 1008 hPa 0,0 l/m 0,0 m/s (0 Bft) S-SW 205 0 min 1,96 klux 9,5 C 16,8 C
16.06.2007 21:20 16,4 C 18,0 C 17,9 C 64 % 1008 hPa 0,0 l/m 0,0 m/s (0 Bft) S-SW 205 0 min 1,30 klux 9,6 C 16,4 C
16.06.2007 21:25 16,4 C 17,8 C 17,8 C 64 % 1008 hPa 0,0 l/m 0,0 m/s (0 Bft) S-SW 200 0 min 822 lux 9,6 C 16,4 C
16.06.2007 21:30 16,3 C 17,7 C 17,8 C 65 % 1008 hPa 0,0 l/m 0,0 m/s (0 Bft) S-SW 200 0 min 411 lux 9,7 C 16,3 C
16.06.2007 21:35 16,1 C 17,5 C 17,9 C 64 % 1008 hPa 0,0 l/m 0,0 m/s (0 Bft) S-SW 200 0 min 173 lux 9,3 C 16,1 C
16.06.2007 21:40 16,2 C 17,4 C 17,5 C 65 % 1008 hPa 0,0 l/m 0,0 m/s (0 Bft) S-SW 200 0 min 70 lux 9,6 C 16,2 C
16.06.2007 21:45 16,1 C 17,3 C 17,6 C 65 % 1008 hPa 0,0 l/m 0,0 m/s (0 Bft) S-SW 200 0 min 38 lux 9,5 C 16,1 C
16.06.2007 21:50 15,6 C 17,2 C 17,2 C 71 % 1008 hPa 0,7 l/m 2,8 m/s (2 Bft) W45 260 0 min 22 lux 10,4 C 13,8 C
16.06.2007 21:55 14,2 C 16,1 C 14,7 C 69 % 1008 hPa 1,4 l/m 8,9 m/s (5 Bft) W-SW67.5 250 0 min 19 lux 8,6 C 6,2 C
16.06.2007 22:00 14,0 C 15,4 C 15,8 C 73 % 1009 hPa 0,4 l/m 2,4 m/s (2 Bft) SW22.5 235 0 min 24 lux 9,2 C 12,6 C
16.06.2007 22:05 14,0 C 15,1 C 15,3 C 76 % 1008 hPa 0,0 l/m 0,9 m/s (1 Bft) W-NW22.5 290 0 min 22 lux 9,8 C 14,0 C
16.06.2007 22:10 13,9 C 14,7 C 15,9 C 80 % 1008 hPa 0,0 l/m 0,0 m/s (0 Bft) W-SW 255 0 min 13 lux 10,5 C 13,9 C
16.06.2007 22:15 14,0 C 14,4 C 15,4 C 80 % 1008 hPa 0,0 l/m 0,0 m/s (0 Bft) W 260 0 min 9 lux 10,6 C 14,0 C
16.06.2007 22:20 13,5 C 14,2 C 15,4 C 82 % 1008 hPa 0,0 l/m 0,0 m/s (0 Bft) W 270 0 min 4 lux 10,5 C 13,5 C
16.06.2007 22:25 13,4 C 13,9 C 15,4 C 82 % 1008 hPa 0,0 l/m 0,9 m/s (1 Bft) NW22.5 315 0 min 1 lux 10,4 C 13,4 C
16.06.2007 22:30 13,2 C 13,7 C 15,0 C 83 % 1008 hPa 0,0 l/m 0,0 m/s (0 Bft) W 280 0 min 0 lux 10,4 C 13,2 C
16.06.2007 22:35 12,8 C 13,5 C 15,0 C 84 % 1008 hPa 0,0 l/m 0,0 m/s (0 Bft) W 280 0 min 0 lux 10,2 C 12,8 C
16.06.2007 22:40 12,8 C 13,4 C 14,9 C 86 % 1008 hPa 0,0 l/m 0,0 m/s (0 Bft) W 280 0 min 0 lux 10,5 C 12,8 C
16.06.2007 22:45 12,8 C 13,2 C 14,9 C 87 % 1008 hPa 0,0 l/m 0,0 m/s (0 Bft) W 280 0 min 0 lux 10,7 C 12,8 C
16.06.2007 22:50 12,8 C 13,0 C 14,7 C 88 % 1008 hPa 0,0 l/m 0,2 m/s (0 Bft) O-NO67.5 70 0 min 0 lux 10,9 C 12,8 C
16.06.2007 22:55 12,6 C 13,0 C 14,8 C 88 % 1009 hPa 0,0 l/m 0,0 m/s (0 Bft) O 95 0 min 0 lux 10,7 C 12,6 C
16.06.2007 23:00 12,4 C 12,8 C 14,5 C 88 % 1009 hPa 0,0 l/m 0,0 m/s (0 Bft) O 95 0 min 0 lux 10,5 C 12,4 C
16.06.2007 23:05 12,5 C 12,6 C 14,2 C 88 % 1008 hPa 0,0 l/m 0,0 m/s (0 Bft) O 95 0 min 0 lux 10,6 C 12,5 C
16.06.2007 23:10 12,4 C 12,5 C 14,1 C 89 % 1008 hPa 0,0 l/m 0,0 m/s (0 Bft) O 95 0 min 0 lux 10,6 C 12,4 C
16.06.2007 23:15 12,2 C 12,4 C 14,1 C 89 % 1008 hPa 0,0 l/m 0,1 m/s (0 Bft) O22.5 90 0 min 0 lux 10,4 C 12,2 C
16.06.2007 23:20 12,1 C 12,3 C 14,1 C 89 % 1008 hPa 0,0 l/m 0,1 m/s (0 Bft) O 80 0 min 0 lux 10,3 C 12,1 C
16.06.2007 23:25 12,2 C 12,1 C 13,7 C 90 % 1008 hPa 0,0 l/m 0,0 m/s (0 Bft) O 80 0 min 0 lux 10,6 C 12,2 C
16.06.2007 23:30 12,0 C 12,1 C 14,1 C 90 % 1008 hPa 0,0 l/m 0,0 m/s (0 Bft) O 80 0 min 0 lux 10,4 C 12,0 C
16.06.2007 23:35 12,0 C 12,0 C 14,1 C 90 % 1009 hPa 0,0 l/m 0,0 m/s (0 Bft) O 80 0 min 0 lux 10,4 C 12,0 C
16.06.2007 23:40 12,1 C 11,9 C 14,0 C 91 % 1009 hPa 0,0 l/m 0,0 m/s (0 Bft) O 80 0 min 0 lux 10,7 C 12,1 C
16.06.2007 23:45 12,2 C 11,9 C 13,7 C 91 % 1009 hPa 0,0 l/m 0,0 m/s (0 Bft) O 80 0 min 0 lux 10,8 C 12,2 C
16.06.2007 23:50 12,3 C 11,9 C 13,6 C 91 % 1009 hPa 0,0 l/m 0,2 m/s (0 Bft) O 80 0 min 0 lux 10,9 C 12,3 C
16.06.2007 23:55 12,2 C 11,8 C 13,6 C 92 % 1009 hPa 0,0 l/m 0,1 m/s (0 Bft) O 80 0 min 0 lux 10,9 C 12,2 C
_ Min-Zeit 23:30 23:55 05:35 14:24 00:00 - 00:00 - - - - 15:35 21:55
Minimum _ 12,0 C 11,8 C 12,7 C 32 % 1007 hPa - 0,0 m/s (0 Bft) - - - - 2,9 C 6,2 C
_ Max-Zeit 14:50 14:20 14:29 04:10 22:00 21:55 15:40 - - 14:45 12:25 00:05 16:10
Maximum _ 21,7 C 26,4 C 27,5 C 95 % 1009 hPa 1,4 l/m 11,3 m/s
W-SW (6 Bft)
- - 6 min 101 klux 13,9 C 18,6 C
Durchschnitt _ 16,7 C 17,9 C 18,8 C 66 % 1008 hPa #2,5 l/m 3,7 m/s (3 Bft) W-SW - #6:55 h 27,6 klux 9,4 C 14,3 C